Regional Weather Roundup
Issued by NWS

Home | Current Version | Previous Version | Graphics & Text | Print | Product List | Glossary On
Versions: 1 2 3 4 5 6 7 8 9 10 11 12 13 14 15 16 17 18 19 20 21 22 23 24 25 26 27
000
ASUS45 KSLC 180910
RWRUT

UTAH REGIONAL WEATHER ROUNDUP
NATIONAL WEATHER SERVICE SALT LAKE CITY UT
200 AM MST WED JAN 18 2017

UTZ001>011-023>025-181000-

NORTHERN UTAH

CITY           SKY/WX    TMP DP  RH WIND       PRES   REMARKS
BRIGHAM CITY     N/A      9   5  82 E3        30.22F
HILL AFB       PTCLDY    15   8  72 E13       30.18F WCI   2
LOGAN          CLEAR      2  -1  88 E5        30.22F FOG     WCI  -8
OGDEN          PTCLDY    15   8  73 S7        30.19F WCI   5
SALT LAKE CITY PTCLDY    21  18  88 N6        30.21F WCI  13
TOOELE VALLEY  CLOUDY    21  19  93 CALM      30.22F FOG
WENDOVER       CLOUDY    21  18  86 CALM      30.22S
HEBER CITY     PTCLDY     0  -6  78 CALM      30.17F
WEST JORDAN    PTCLDY    20  20 100 NW5       30.20S WCI  13

$$

UTZ011>015-024>027-181000-

CENTRAL/NORTHEAST UTAH

CITY           SKY/WX    TMP DP  RH WIND       PRES   REMARKS
PROVO AIRPORT  PTCLDY    16  13  88 S5        30.20F WCI   9
MOAB/CANYONLAN CLEAR     27  23  85 CALM      30.17S
DELTA          CLEAR     19  18  93 NE3       30.17F
PRICE          PTCLDY    12   2  64 N6        30.14F WCI   3
RICHFIELD      CLEAR     19  19 100 CALM      30.21F
ROOSEVELT      FLURRIES  18  14  86 CALM      30.29S
VERNAL         CLOUDY    16  13  88 NW3       30.27S

$$

UTZ013>016-019>022-027-181000-

SOUTHERN UTAH

CITY           SKY/WX    TMP DP  RH WIND       PRES   REMARKS
BRYCE CANYON   PTCLDY     5   0  79 W9        30.15F WCI  -9
CEDAR CITY     CLEAR     19  16  88 E3        30.13F
MILFORD        CLEAR     19  16  88 W5        30.15F WCI  12
ST GEORGE      MOSUNNY   36  25  64 S3        30.18F
HANKSVILLE     PTCLDY    25  23  93 MISG      30.21S
KANAB          CLEAR     30  25  80 NE2       30.21R
BLANDING       CLEAR     28  27  94 CALM      30.22S

$$

REGIONAL REPORTS     COLORADO/ARIZONA

CITY           SKY/WX    TMP DP  RH WIND       PRES   REMARKS
CRAIG, CO      FOG        7   4  87 CALM      30.20S VSB 1/4
GRAND JUNCTION CLOUDY    30  29  96 NW3       30.18R
RIFLE, CO      CLOUDY    25  22  88 CALM      30.19R
MONTROSE, CO   CLOUDY    34  31  88 CALM      30.18R
CORTEZ, CO     CLEAR     27  26  96 NE5       30.15R WCI  22
COLORADO CITY    N/A     28  27  93 SE7       30.18F WCI  21
PAGE, AZ       CLEAR     33  25  72 CALM      30.17R
GRAND CANYON   CLEAR     22  20  92 CALM      30.17S
KINGMAN, AZ    CLEAR     32  22  66 CALM      30.14S
FLAGSTAFF, AZ  PTCLDY    22  20  92 CALM      30.17S

$$

REGIONAL REPORTS    NEVADA/IDAHO/WYOMING

CITY           SKY/WX    TMP DP  RH WIND       PRES   REMARKS
LAS VEGAS, NV  PTCLDY    42  23  46 SW5       30.14S
ELY, NY        PTCLDY    11   5  77 S12       30.13F WCI  -3
ELKO, NV       PTCLDY     6   1  80 NE5       30.15F WCI  -3
POCATELLO, ID  CLOUDY     3   0  87 NE3       30.15F
BURLEY, ID     CLEAR     16   9  74 NE10      30.08F WCI   4
FORT BRIDGER,    N/A      5  -2  74 CALM      30.13F
EVANSTON, WY   CLOUDY    15   5  64 S8        30.10F WCI   4
ROCK SPRINGS,  CLOUDY    -4  -9  79 CALM      30.12F

$$




USA.gov is the U.S. government's official web portal to all federal, state and local government web resources and services.